Stündliche Wetter Çaykara

Heute, 30 Oktober, Freitag

Zeit Temperatur Niederschläge Wind Luftdruck Luftfeuchtigkeit
00:00 +13°C° 0 mm 2 m/S 632 mmHg 44%
01:00 +12°C° 0 mm 2 m/S 632 mmHg 44%
02:00 +12°C° 0 mm 2 m/S 632 mmHg 44%
03:00 +10°C° 0 mm 2 m/S 632 mmHg 47%
04:00 +10°C° 0 mm 2 m/S 632 mmHg 46%
05:00 +10°C° 0 mm 2 m/S 632 mmHg 46%
06:00 +9°C° 0 mm 2 m/S 632 mmHg 46%
07:00 +12°C° 0 mm 2 m/S 632 mmHg 44%
08:00 +13°C° 0 mm 2 m/S 633 mmHg 43%
09:00 +15°C° 0 mm 1 m/S 634 mmHg 42%
10:00 +16°C° 0 mm 1 m/S 634 mmHg 42%
11:00 +17°C° 0 mm 2 m/S 634 mmHg 41%
12:00 +17°C° 0 mm 2 m/S 634 mmHg 41%
13:00 +17°C° 0 mm 2 m/S 633 mmHg 44%
14:00 +17°C° 0 mm 3 m/S 633 mmHg 47%
15:00 +17°C° 0 mm 3 m/S 633 mmHg 50%
16:00 +16°C° 0 mm 3 m/S 632 mmHg 54%
17:00 +15°C° 0 mm 2 m/S 632 mmHg 58%
18:00 +13°C° 0 mm 2 m/S 631 mmHg 62%
19:00 +13°C° 0 mm 2 m/S 631 mmHg 62%
20:00 +13°C° 0 mm 2 m/S 631 mmHg 61%
21:00 +13°C° 0 mm 2 m/S 631 mmHg 61%
22:00 +11°C° 0 mm 3 m/S 631 mmHg 58%
23:00 +11°C° 0 mm 3 m/S 631 mmHg 55%

Morgen, 31 Oktober, Samstag

Zeit Temperatur Niederschläge Wind Luftdruck Luftfeuchtigkeit
00:00 +11°C° 0 mm 3 m/S 630 mmHg 53%
01:00 +11°C° 0 mm 3 m/S 630 mmHg 53%
02:00 +12°C° 0 mm 3 m/S 630 mmHg 54%
03:00 +12°C° 0 mm 3 m/S 630 mmHg 55%
04:00 +12°C° 0 mm 3 m/S 630 mmHg 53%
05:00 +11°C° 0 mm 4 m/S 630 mmHg 51%
06:00 +11°C° 0 mm 4 m/S 630 mmHg 50%
07:00 +12°C° 0 mm 3 m/S 630 mmHg 49%
08:00 +13°C° 0 mm 3 m/S 631 mmHg 49%
09:00 +14°C° 0 mm 3 m/S 631 mmHg 48%
10:00 +15°C° 0 mm 2 m/S 631 mmHg 50%
11:00 +15°C° 0 mm 2 m/S 631 mmHg 52%
12:00 +15°C° 0 mm 2 m/S 631 mmHg 53%
13:00 +15°C° 0.3 mm 2 m/S 631 mmHg 57%
14:00 +14°C° 0.3 mm 3 m/S 631 mmHg 61%
15:00 +13°C° 0.3 mm 3 m/S 631 mmHg 64%
16:00 +12°C° 0.3 mm 3 m/S 630 mmHg 69%
17:00 +11°C° 0.3 mm 3 m/S 630 mmHg 73%
18:00 +10°C° 0.3 mm 3 m/S 630 mmHg 77%
19:00 +10°C° 0.1 mm 2 m/S 630 mmHg 76%
20:00 +10°C° 0.1 mm 2 m/S 631 mmHg 75%
21:00 +9°C° 0.1 mm 2 m/S 631 mmHg 75%
22:00 +9°C° 0 mm 2 m/S 631 mmHg 74%
23:00 +9°C° 0 mm 2 m/S 631 mmHg 73%

übermorgen, 1 November, Sonntag

Zeit Temperatur Niederschläge Wind Luftdruck Luftfeuchtigkeit
00:00 +9°C° 0 mm 2 m/S 631 mmHg 72%
01:00 +8°C° 0 mm 2 m/S 630 mmHg 70%
02:00 +8°C° 0 mm 2 m/S 630 mmHg 68%
03:00 +8°C° 0 mm 2 m/S 630 mmHg 66%
04:00 +8°C° 0 mm 2 m/S 630 mmHg 66%
05:00 +8°C° 0 mm 2 m/S 630 mmHg 66%
06:00 +8°C° 0 mm 2 m/S 630 mmHg 65%
07:00 +9°C° 0 mm 2 m/S 630 mmHg 63%
08:00 +10°C° 0 mm 3 m/S 631 mmHg 61%
09:00 +11°C° 0 mm 3 m/S 631 mmHg 58%
10:00 +12°C° 0 mm 4 m/S 631 mmHg 55%
11:00 +13°C° 0 mm 4 m/S 632 mmHg 52%
12:00 +15°C° 0 mm 5 m/S 632 mmHg 49%
13:00 +14°C° 0 mm 5 m/S 632 mmHg 50%
14:00 +14°C° 0 mm 5 m/S 632 mmHg 51%
15:00 +14°C° 0 mm 5 m/S 631 mmHg 52%
16:00 +13°C° 0 mm 4 m/S 631 mmHg 54%
17:00 +11°C° 0 mm 3 m/S 631 mmHg 56%
18:00 +10°C° 0 mm 2 m/S 631 mmHg 58%
19:00 +10°C° 0.1 mm 2 m/S 632 mmHg 64%
20:00 +9°C° 0.1 mm 2 m/S 632 mmHg 69%
21:00 +9°C° 0.1 mm 2 m/S 632 mmHg 74%
22:00 +9°C° 0.3 mm 2 m/S 632 mmHg 76%
23:00 +9°C° 0.3 mm 2 m/S 632 mmHg 78%

2 November, Montag

Zeit Temperatur Niederschläge Wind Luftdruck Luftfeuchtigkeit
00:00 +8°C° 0.3 mm 2 m/S 632 mmHg 79%
01:00 +8°C° 0.2 mm 2 m/S 632 mmHg 80%
02:00 +8°C° 0.2 mm 2 m/S 632 mmHg 80%
03:00 +7°C° 0.2 mm 2 m/S 632 mmHg 80%
04:00 +7°C° 0.2 mm 2 m/S 632 mmHg 80%
05:00 +7°C° 0.2 mm 2 m/S 632 mmHg 80%
06:00 +7°C° 0.2 mm 2 m/S 633 mmHg 80%
07:00 +8°C° 0.1 mm 2 m/S 633 mmHg 80%
08:00 +8°C° 0.1 mm 2 m/S 633 mmHg 79%
09:00 +8°C° 0.1 mm 2 m/S 633 mmHg 78%
10:00 +9°C° 0.2 mm 3 m/S 633 mmHg 76%
11:00 +9°C° 0.2 mm 3 m/S 633 mmHg 74%
12:00 +10°C° 0.2 mm 4 m/S 633 mmHg 73%
13:00 +9°C° 0.1 mm 3 m/S 633 mmHg 73%
14:00 +9°C° 0.1 mm 3 m/S 632 mmHg 74%
15:00 +9°C° 0.1 mm 3 m/S 632 mmHg 74%
16:00 +9°C° 0 mm 2 m/S 632 mmHg 77%
17:00 +9°C° 0 mm 1 m/S 632 mmHg 79%
18:00 +9°C° 0 mm 1 m/S 632 mmHg 81%
19:00 +8°C° 0 mm 1 m/S 632 mmHg 80%
20:00 +8°C° 0 mm 1 m/S 632 mmHg 80%
21:00 +8°C° 0 mm 1 m/S 632 mmHg 79%
22:00 +8°C° 0 mm 1 m/S 632 mmHg 80%
23:00 +8°C° 0 mm 1 m/S 632 mmHg 80%

3 November, Dienstag

Zeit Temperatur Niederschläge Wind Luftdruck Luftfeuchtigkeit
00:00 +8°C° 0 mm 1 m/S 632 mmHg 81%
01:00 +8°C° 0.3 mm 1 m/S 632 mmHg 82%
02:00 +8°C° 0.3 mm 1 m/S 632 mmHg 84%
03:00 +8°C° 0.3 mm 1 m/S 632 mmHg 85%
04:00 +7°C° 0.1 mm 1 m/S 632 mmHg 86%
05:00 +6°C° 0.1 mm 2 m/S 632 mmHg 87%
06:00 +6°C° 0.1 mm 2 m/S 632 mmHg 88%
07:00 +8°C° 0 mm 1 m/S 632 mmHg 83%
08:00 +9°C° 0 mm 1 m/S 633 mmHg 79%
09:00 +10°C° 0 mm 1 m/S 633 mmHg 75%
10:00 +11°C° 0 mm 1 m/S 633 mmHg 72%
11:00 +12°C° 0 mm 1 m/S 633 mmHg 69%
12:00 +12°C° 0 mm 1 m/S 633 mmHg 66%
13:00 +12°C° 0.2 mm 2 m/S 633 mmHg 69%
14:00 +12°C° 0.2 mm 2 m/S 633 mmHg 73%
15:00 +10°C° 0.2 mm 2 m/S 633 mmHg 76%
16:00 +10°C° 0.3 mm 2 m/S 633 mmHg 79%
17:00 +9°C° 0.3 mm 2 m/S 632 mmHg 82%
18:00 +10°C° 0.3 mm 1 m/S 632 mmHg 85%
19:00 +9°C° 0 mm 1 m/S 632 mmHg 84%
20:00 +9°C° 0 mm 1 m/S 632 mmHg 84%
21:00 +9°C° 0 mm 1 m/S 632 mmHg 83%
22:00 +9°C° 0.2 mm 1 m/S 632 mmHg 84%
23:00 +9°C° 0.2 mm 1 m/S 632 mmHg 85%

4 November, Mittwoch

Zeit Temperatur Niederschläge Wind Luftdruck Luftfeuchtigkeit
00:00 +9°C° 0.2 mm 1 m/S 632 mmHg 86%
01:00 +9°C° 0.5 mm 1 m/S 632 mmHg 87%
02:00 +8°C° 0.5 mm 2 m/S 631 mmHg 88%
03:00 +7°C° 0.5 mm 2 m/S 631 mmHg 89%
04:00 +7°C° 0.3 mm 2 m/S 631 mmHg 88%
05:00 +7°C° 0.3 mm 2 m/S 631 mmHg 87%
06:00 +7°C° 0.3 mm 2 m/S 631 mmHg 86%
07:00 +9°C° 0 mm 1 m/S 631 mmHg 83%
08:00 +10°C° 0 mm 1 m/S 631 mmHg 79%
09:00 +10°C° 0 mm 1 m/S 631 mmHg 76%
10:00 +10°C° 0 mm 2 m/S 631 mmHg 75%
11:00 +10°C° 0 mm 2 m/S 631 mmHg 75%
12:00 +10°C° 0 mm 3 m/S 632 mmHg 75%
13:00 +10°C° 0.3 mm 3 m/S 631 mmHg 78%
14:00 +10°C° 0.3 mm 4 m/S 631 mmHg 81%
15:00 +8°C° 0.3 mm 4 m/S 631 mmHg 84%
16:00 +8°C° 1.5 mm 3 m/S 631 mmHg 87%
17:00 +8°C° 1.5 mm 3 m/S 631 mmHg 90%
18:00 +7°C° 1.5 mm 2 m/S 630 mmHg 93%
19:00 +7°C° 3 mm 2 m/S 630 mmHg 93%
20:00 +7°C° 3 mm 2 m/S 631 mmHg 94%
21:00 +7°C° 3 mm 2 m/S 631 mmHg 95%
22:00 +6°C° 2.3 mm 2 m/S 631 mmHg 94%
23:00 +6°C° 2.3 mm 2 m/S 631 mmHg 94%
Mehr zeigen